Regional Weather Roundup
Issued by NWS

Home | Current Version | Previous Version | Graphics & Text | Print | Product List | Glossary On
Versions: 1 2 3 4 5 6 7 8 9 10 11 12 13 14 15 16 17 18 19 20 21 22 23 24 25 26 27 28 29 30 31 32 33 34 35 36 37 38 39 40 41 42 43 44 45 46 47 48 49 50
000
ASUS43 KTOP 241608
RWRKS

WEATHER ROUNDUP FOR KANSAS
NATIONAL WEATHER SERVICE GOODLAND KS
1100 AM CDT FRI MAR 24 2017

NOTE:  "FAIR" INDICATES FEW OR NO CLOUDS BELOW 12,000 FEET WITH NO
SIGNIFICANT WEATHER AND/OR OBSTRUCTIONS TO VISIBILITY.

KSZ001>006-013>018-027>032-041>047-241700-
NORTHWEST KANSAS

CITY           SKY/WX    TMP DP  RH WIND       PRES   REMARKS
GOODLAND       LGT RAIN  40  39  97 N28G38    29.86R FOG     WCI  29
HAYS             N/A     63  36  36 SE13      29.73R
HILL CITY      CLOUDY    49  47  93 NE23G32   29.79R FOG
RUSSELL        SUNNY     65  34  31 S16       29.72R
$$

KSZ061>065-074>080-084>089-241700-
SOUTHWEST KANSAS

CITY           SKY/WX    TMP DP  RH WIND       PRES   REMARKS
DODGE CITY     SUNNY     59  36  42 SE15      29.69F
ELKHART          N/A     46  30  53 N15         N/A
GARDEN CITY    SUNNY     56  34  43 SE12      29.68R
GREAT BEND     SUNNY     64  36  35 SE15      29.73F
LIBERAL        CLOUDY    55  32  41 E8        29.61R
PRATT          SUNNY     62  31  30 SE16G22   29.72F
$$

KSZ066>073-081>083-090>101-241700-
SOUTHEAST KANSAS

CITY           SKY/WX    TMP DP  RH WIND       PRES   REMARKS
CHANUTE        CLOUDY    68  52  56 S29G37    29.84R
COFFEYVILLE    CLOUDY    68  54  60 S24G32    29.85R
HUTCHINSON     SUNNY     70  40  33 S16       29.76R
MEDICINE LODGE   N/A     66  32  28 SE15G25   29.70F
NEWTON         CLOUDY    67  51  56 S26G35    29.78R
PARSONS        PTSUNNY   70  53  54 S18G28    29.85R
WICHITA INTL   MOSUNNY   67  52  58 S23G30    29.77R
WICHITA JABRA  CLOUDY    68  53  58 S22G33    29.77R
WICHITA MCCONL CLOUDY    68  52  56 S23       29.77R
WINFIELD       CLOUDY    68  54  60 S18G30    29.79R
$$

KSZ007>012-019>026-033>040-048>060-102>105-241700-
NORTHEAST KANSAS

CITY           SKY/WX    TMP DP  RH WIND       PRES   REMARKS
CONCORDIA      CLOUDY    68  48  48 S7        29.78R
EMPORIA        PTSUNNY   71  53  52 S31G40    29.77R
LAWRENCE       LGT RAIN  66  51  58 SE10      29.84R
MANHATTAN      PTSUNNY   71  50  47 S14G23    29.77R
MARYSVILLE     CLOUDY    63  52  67 SE8       29.80R
OLATHE IND     PTSUNNY   65  55  70 SE13      29.85R
OLATHE EXE     CLOUDY    63  53  70 S12G21    29.85R
SALINA         CLOUDY    73  49  42 S22G33    29.74R
TOPEKA BILLARD CLOUDY    67  54  63 S9        29.81S
TOPEKA FORBES  CLOUDY    68  52  56 S17G28    29.81R
$$




USA.gov is the U.S. government's official web portal to all federal, state and local government web resources and services.